User: anonymous   Login
Location: Caltech
(34.1382°N, 118.1253°W)
Time: 06:55:43
(UTC-07:00)
Language:

NOSS 3-2 (A) - Orbit

View from above orbital plane
View from above orbital plane
View from above satellite
View from above satellite

Ground track
Ground track

The orbit data is extracted from the following two-line orbital elements,

1 28095U 03054A   17086.05502644 0.00000000  00000-0  00000-0 0    07
2 28095  63.4194 161.8965 0297000 358.4041   1.5959 13.41347377    01
Epoch (UTC): 27 March 2017 01:19:14
Eccentricity: 0.0297000
inclination: 63.4194°
perigee height: 882 km
apogee height: 1326 km
right ascension of ascending node: 161.8965°
argument of perigee: 358.4041°
revolutions per day: 13.41347377
mean anomaly at epoch: 1.5959°
orbit number at epoch: 0

The dashed part of the orbit path shows where the satellite is in the earth's shadow,  

DLR